Regional Weather Roundup
Issued by NWS Wakefield, VA

Home | Current Version | Previous Version | Text Only | Print | Product List | Glossary Off
Versions: 1 2 3 4 5 6 7 8 9 10 11 12 13 14 15 16 17 18 19 20 21 22 23 24 25 26 27

000
ASUS41 KAKQ 240510
RWRAKQ

REGIONAL WEATHER ROUNDUP
NATIONAL WEATHER SERVICE WAKEFIELD VA
100 AM EDT THU APR 24 2014

Note: "fair" indicates few or no clouds below 12,000 feet with no
significant weather and/or obstructions to visibility. * = Denotes
station may not report precipitation (e.g., rain,snow,etc.),
thunder or fog.

VAZ042-051-052>054-056-240600-
NORTHERN VIRGINIA

CITY           SKY/WX    TMP DP  RH WIND       PRES   REMARKS
WASH NATIONAL  CLEAR     49  29  46 NW9       30.02R
DULLES         CLEAR     45  28  51 VRB6      30.02R
FORT BELVOIR   CLEAR     48  29  47 NW8       30.02R
QUANTICO       CLEAR     50  27  40 N14G21    30.04R
FREDERICKSBRG* CLEAR     50  32  50 N6        30.02S
STAFFORD*      CLEAR     45  32  59 NW7       30.07R
WARRENTON      CLEAR     47  35  62 NW7       30.03R
CULPEPER*      CLEAR     52  25  35 NW3       30.04R
MANASSAS*      CLEAR     46  30  53 NW8       30.03R
LEESBURG*      CLEAR     45  32  61 NW10      30.02S
WINCHESTER     CLEAR     45  30  57 NW15      30.03S
$$

VAZ048-049-060>072-079>083-240600-
CENTRAL AND SOUTH CENTRAL VIRGINIA...AND NORTH CENTRAL NORTH CAROLINA

CITY           SKY/WX    TMP DP  RH WIND       PRES   REMARKS
RICHMOND       CLEAR     50  32  50 N10       30.01R
CHESTERFIELD*  CLEAR     52  27  37 W6        30.02R
HANOVER        CLEAR     48  33  56 VRB6      30.03R
TAPPAHANNOCK*  CLEAR     50  28  43 CALM      30.02R
CHARLOTTSVILLE CLEAR     50  27  40 VRB5      30.03R
ORANGE*        CLEAR     43  32  65 W8        30.04R
LOUISA*        CLEAR     43  30  61 CALM      30.01R
FARMVILLE*     CLEAR     48  28  46 CALM      30.01R
SOUTH HILL*    CLEAR     48  36  61 N3        30.06R
ROANOKE RAPIDS CLEAR     52  36  54 CALM      30.01R
RALEIGH        CLEAR     53  33  46 NE6       30.02R
$$

VAZ088>098-240600-
SOUTHEAST VIRGINIA

CITY           SKY/WX    TMP DP  RH WIND       PRES   REMARKS
NORFOLK        CLEAR     55  35  47 N12G21    29.98R
VIRGINIA BEACH CLEAR     54  35  48 N16G30    29.97R
NORFOLK NAVAL  CLEAR     55  34  45 N17G24    30.00R
WEST POINT*    CLEAR     53  30  40 N6        30.02R
NEWPORT NEWS   CLEAR     55  32  41 N10G20    29.99R
LANGLEY AFB    CLEAR     52  34  49 N8        30.00R
FORT EUSTIS    CLEAR     54  36  50 N9G23     29.98R
WILLIAMSBURG*  CLEAR     54  36  50 N9        30.01R
FRANKLIN*      CLEAR     50  37  62 NW3       29.99R
WAKEFIELD      CLEAR     52  33  48 NW3       30.01R
$$

VAZ020-022-025-037-045-240600-
WESTERN AND SOUTHWEST VIRGINIA

CITY           SKY/WX    TMP DP  RH WIND       PRES   REMARKS
STAUNTON*      CLEAR     44  28  53 N7        30.06R
HOT SPRINGS VA CLEAR     37  27  65 NW6G16    30.05S
LYNCHBURG      CLEAR     51  30  44 N3        30.05R
DANVILLE       CLEAR     50  32  50 SE5       30.04R
MARTINSVILLE     N/A     41  35  79 CALM      30.06R
ROANOKE        CLEAR     52  28  39 N5        30.06R
BLACKSBURG     CLEAR     45  34  65 N7        30.07S
DUBLIN*        CLEAR     46  30  52 NW6       30.06S
MARION*        CLEAR     43  26  49 SW3       30.07F
HILLSVILLE*    CLEAR     46  19  34 N8        30.06F
RICHLANDS*     CLEAR     50  19  29 N3        30.06S
WISE*          CLEAR     45  23  42 NE3       30.08R
ABINGDON*      CLEAR     44  29  56 CALM      30.06S
$$

MDZ021>025-VAZ099-100-240600-
SOUTHERN MARYLAND AND THE DELMARVA PENINSULA

CITY           SKY/WX    TMP DP  RH WIND       PRES   REMARKS
PATUXENT RIVER CLEAR     50  30  46 NW16G24   29.99R
BAY BRIDGE APT CLEAR     46  32  57 NW13      29.99R
LEONARDTOWN    CLEAR     46  30  53 NW5       30.01S
DOVER          CLEAR     45  30  55 W12       29.91R
GEORGETOWN     CLEAR     47  29  49 VRB7      29.95R
EASTON         CLEAR     49  34  56 NW14G21   30.01R
CAMBRIDGE      CLEAR     52  32  46 NW12G18   29.98R
SALISBURY      CLEAR     49  29  46 NW10      29.96R
OCEAN CITY     CLEAR     47  29  49 NW13G24   29.95R
WALLOPS ISLAND CLEAR     49  30  48 N13G20    29.97R
ACCOMACK*      CLEAR     50  28  43 N16G26    29.98R
$$

NCZ012>017-030>032-240600-
EASTERN NORTH CAROLINA

CITY           SKY/WX    TMP DP  RH WIND       PRES   REMARKS
ELIZABETH CITY CLEAR     49  37  63 W6        29.98R
AHOSKIE*       CLEAR     44  37  75 CALM      30.01R
EDENTON*       CLEAR     48  41  75 CALM      29.99R
CURRITUCK*     CLEAR     54  32  43 NW9       29.98R
KILL DEVIL HLS CLEAR     53  42  66 N8        29.96R
MANTEO         CLEAR     50  43  76 CALM      29.97R
CAPE HATTERAS  CLEAR     46  41  82 NE3       29.98R
GOLDSBORO      CLEAR     56  36  46 NE5       29.98R
WASHINGTON     CLEAR     53  38  57 N7        29.99R
GREENVILLE     CLEAR     52  37  58 CALM      30.01R
NEW BERN       CLEAR     54  41  61 NE6       29.99R
WILMINGTON     CLEAR     51  44  77 CALM      29.97R
$$

VAZ048-240600-
ELSEWHERE

CITY           SKY/WX    TMP DP  RH WIND       PRES   REMARKS
HARRISBURG PA  CLEAR     46  26  45 NW13      29.96R
BALTIMORE      CLEAR     42  30  62 W7        29.98R
ANNAPOLIS      CLEAR     48  32  53 W8        29.99R
ANDREWS AFB    CLEAR     47  30  50 NW12      30.00R
WILMINGTON DE  CLEAR     41  30  65 NW7       29.96R
PHILADELPHIA   CLEAR     47  25  42 NW12      29.94F
WILDWOOD NJ*   PTCLDY    46  30  53 NW9G18    29.94R
ATLANTIC CITY  CLEAR     44  25  47 NW15      29.90R
HENDERSON NC   CLEAR     52  32  46 N6        30.02R
GREENSBORO     CLEAR     53  28  38 NE6       30.01R
ROCKY MOUNT    CLEAR     49  36  61 N6        30.01R
FAYETTEVILLE   CLEAR     54  36  50 N8        29.99R
CHARLOTTE      CLEAR     58  28  32 NE8       30.01R
$$

VAZ100-240600-
MARINE

STATION/POSITION TIME  TEMP    WIND        PRES    WAVE   SWELL
                       AIR SEA DIR/SP/G            HT/PER HT/PER
                 (UTC) (F)     (DEG/KT/KT) (MB)    (FT/S) (FT/S)
44066 TX TWR #4  0500   45 45  310/ 23/ 27 1008.0R   9/ 7   2/15
CAPE MAY NJ      0500   49 59  340/ 13/ 22 1013.0R
LEWES DE         0500   49 53  320/ 26/ 31 1012.8S
15NM E FENWICK I 0500   48 47              1012.9R   5/ 5
OCEAN-CITY-INLET 0500   49 54  340/ 17/ 23 1013.5S
WACHAPREAGUE VA  0500   50 59  340/  9/ 20 1014.6R
THOMAS POINT MD  0500   49 53  290/ 10/ 12 1016.0R
GOOSES REEF MD   0500   50     330/ 14/ 19   N/A
COVE POINT MD    0500   50     340/ 17/ 20 1015.5R
SOLOMONS ISLAND  0500      56                N/A
BISHOPS HEAD MD  0500   49 56  330/ 11/ 13 1015.1S
PINEY POINT MD   0500          350/ 15/ 17   N/A
POTOMAC MD       0500   51     350/ 16/ 19 1015.4R
CAMBRIDGE MD     0500   51 57  310/ 14/ 20 1014.7R
LEWISETTA VA     0500   51 57  340/ 13/ 19 1015.8R
RAPPAHANNOCK LGT 0500          340/ 30/ 34 1015.3R
STINGRAY PT      0500   53     360/ 19/ 21 1015.5R
YORK RVR RNG VA  0500   55     360/ 24/ 28 1014.1F
YORKTOWN VA      0500   54 57  340/ 15/ 18 1015.1F
JAMESTOWN VA     0500   53      10/  8/ 14   N/A
DOMINION TERM VA 0500   55     100/  3/ 14 1015.1R
KIPTOPEKE VA     0500      56  350/ 23/ 28   N/A
CHES BAY BRIDGE  0500   55 54  340/ 23/ 26 1014.9R
CAPE HENRY VA    0500   55     330/ 26/ 29   N/A
CHESAPEAKE LGHT  0400   54     340/ 22/ 25 1014.4R
WILLOUBY STN VA  0500   54     350/ 17/ 20 1014.3S
S CRANEY ISL VA  0500          330/ 16/ 19 1015.0R
CAPE HENRY BUOY  0500      48                N/A     3/ 4
1ST LANDING BUOY 0500      49                N/A     3/ 3   2/15
64NM E OF VA BCH 0500   52 49  330/ 16/ 19 1013.5R   4/ 6   2/15
DUCK PIER NC     0500   54 51  350/ 12/ 13 1013.5R
44100 DUCK FRF   0500      49                N/A     3/ 5   2/15
44056 DUCK FRF   0500      49                N/A     3/15   2/15
OREGON INLET NC  0500   53 54  340/  6/  9 1014.7S
HATTERAS NC      0500   56 62   50/  4/  5 1015.1R
DIAMOND SHLS NC  0500   61 74   10/ 16/ 19 1014.5R   4/ 9   3/ 9
CAPE LOOKOUT NC  0400   61      60/  2/  2 1013.7R
FRYING PAN SHLS  0500   68 68   70/  6/  8 1014.3R   2/ 8   2/ 8
$$



USA.gov is the U.S. government's official web portal to all federal, state and local government web resources and services.